When you browse on this site, cookies collect data to enhance your experience and personalize the content and advertising you see.
Visit our Privacy Policy to learn more. By continuing to use the site, you agree to this use of cookies and data.
  • In Czech Republic
  • List of Countries
  • For 7 days
  • Water Temperature
  • Satellite Maps
  • Weather Map
  • Weather Widgets
  • user-avatar
    Login

    Hourly Weather Durres

    Today, 25 June, Tuesday

    Time Temperature Precipitation Wind Pressure Humidity
    00:00 +22°C° 0 mm 4 mps 760 mmHg 79%
    01:00 +22°C° 0 mm 4 mps 760 mmHg 76%
    02:00 +22°C° 0 mm 4 mps 760 mmHg 73%
    03:00 +21°C° 0 mm 4 mps 760 mmHg 70%
    04:00 +21°C° 0 mm 5 mps 759 mmHg 67%
    05:00 +23°C° 0 mm 5 mps 760 mmHg 63%
    06:00 +26°C° 0 mm 5 mps 760 mmHg 59%
    07:00 +28°C° 0 mm 5 mps 760 mmHg 55%
    08:00 +30°C° 0 mm 5 mps 761 mmHg 48%
    09:00 +33°C° 0 mm 5 mps 761 mmHg 42%
    10:00 +35°C° 0 mm 5 mps 761 mmHg 36%
    11:00 +36°C° 0 mm 5 mps 761 mmHg 35%
    12:00 +38°C° 0 mm 6 mps 761 mmHg 34%
    13:00 +38°C° 0 mm 6 mps 761 mmHg 33%
    14:00 +38°C° 0 mm 7 mps 761 mmHg 33%
    15:00 +38°C° 0 mm 8 mps 761 mmHg 34%
    16:00 +38°C° 0 mm 9 mps 761 mmHg 35%
    17:00 +35°C° 0 mm 9 mps 761 mmHg 43%
    18:00 +33°C° 0 mm 9 mps 762 mmHg 52%
    19:00 +31°C° 0 mm 9 mps 762 mmHg 61%
    20:00 +29°C° 0 mm 8 mps 762 mmHg 61%
    21:00 +28°C° 0 mm 7 mps 762 mmHg 62%
    22:00 +27°C° 0 mm 6 mps 762 mmHg 62%
    23:00 +27°C° 0 mm 6 mps 762 mmHg 61%

    Tomorrow, 26 June, Wednesday

    Time Temperature Precipitation Wind Pressure Humidity
    00:00 +26°C° 0 mm 5 mps 762 mmHg 60%
    01:00 +26°C° 0 mm 5 mps 762 mmHg 58%
    02:00 +26°C° 0 mm 5 mps 762 mmHg 59%
    03:00 +25°C° 0 mm 4 mps 762 mmHg 59%
    04:00 +25°C° 0 mm 4 mps 762 mmHg 59%
    05:00 +27°C° 0 mm 4 mps 762 mmHg 57%
    06:00 +29°C° 0 mm 5 mps 762 mmHg 54%
    07:00 +30°C° 0 mm 5 mps 762 mmHg 52%
    08:00 +33°C° 0 mm 5 mps 762 mmHg 47%
    09:00 +34°C° 0 mm 5 mps 762 mmHg 43%
    10:00 +36°C° 0 mm 5 mps 762 mmHg 39%
    11:00 +36°C° 0 mm 5 mps 762 mmHg 37%
    12:00 +38°C° 0 mm 6 mps 762 mmHg 36%
    13:00 +39°C° 0 mm 6 mps 762 mmHg 35%
    14:00 +38°C° 0 mm 6 mps 762 mmHg 36%
    15:00 +38°C° 0 mm 7 mps 761 mmHg 36%
    16:00 +38°C° 0 mm 7 mps 761 mmHg 37%
    17:00 +35°C° 0 mm 7 mps 761 mmHg 43%
    18:00 +33°C° 0 mm 7 mps 761 mmHg 49%
    19:00 +32°C° 0 mm 6 mps 761 mmHg 54%
    20:00 +30°C° 0 mm 6 mps 761 mmHg 56%
    21:00 +29°C° 0 mm 5 mps 762 mmHg 59%
    22:00 +28°C° 0 mm 4 mps 762 mmHg 61%
    23:00 +27°C° 0 mm 4 mps 762 mmHg 61%

    Day after tomorrow, 27 June, Thursday

    Time Temperature Precipitation Wind Pressure Humidity
    00:00 +27°C° 0 mm 4 mps 762 mmHg 61%
    01:00 +27°C° 0 mm 4 mps 762 mmHg 61%
    02:00 +26°C° 0 mm 3 mps 762 mmHg 61%
    03:00 +26°C° 0 mm 3 mps 761 mmHg 61%
    04:00 +25°C° 0 mm 3 mps 761 mmHg 61%
    05:00 +27°C° 0 mm 3 mps 761 mmHg 58%
    06:00 +29°C° 0 mm 3 mps 761 mmHg 54%
    07:00 +30°C° 0 mm 3 mps 761 mmHg 51%
    08:00 +33°C° 0 mm 3 mps 761 mmHg 46%
    09:00 +35°C° 0 mm 3 mps 761 mmHg 41%
    10:00 +36°C° 0 mm 4 mps 761 mmHg 36%
    11:00 +37°C° 0 mm 4 mps 760 mmHg 34%
    12:00 +39°C° 0 mm 5 mps 760 mmHg 32%
    13:00 +39°C° 0 mm 6 mps 760 mmHg 30%
    14:00 +38°C° 0 mm 7 mps 759 mmHg 35%
    15:00 +36°C° 0 mm 7 mps 759 mmHg 40%
    16:00 +35°C° 0 mm 7 mps 758 mmHg 46%
    17:00 +33°C° 0 mm 7 mps 758 mmHg 54%
    18:00 +30°C° 0 mm 7 mps 758 mmHg 62%
    19:00 +28°C° 0 mm 7 mps 758 mmHg 70%
    20:00 +28°C° 0 mm 6 mps 758 mmHg 67%
    21:00 +27°C° 0 mm 5 mps 758 mmHg 65%
    22:00 +27°C° 0 mm 5 mps 759 mmHg 63%
    23:00 +26°C° 0 mm 4 mps 759 mmHg 61%

    28 June, Friday

    Time Temperature Precipitation Wind Pressure Humidity
    00:00 +26°C° 0 mm 3 mps 758 mmHg 59%
    01:00 +26°C° 0 mm 3 mps 758 mmHg 57%
    02:00 +25°C° 0 mm 2 mps 758 mmHg 57%
    03:00 +25°C° 0 mm 2 mps 758 mmHg 57%
    04:00 +25°C° 0 mm 2 mps 757 mmHg 57%
    05:00 +27°C° 0 mm 2 mps 757 mmHg 54%
    06:00 +29°C° 0 mm 1 mps 757 mmHg 52%
    07:00 +31°C° 0 mm 1 mps 757 mmHg 49%
    08:00 +32°C° 0 mm 2 mps 757 mmHg 45%
    09:00 +35°C° 0 mm 3 mps 757 mmHg 42%
    10:00 +36°C° 0 mm 4 mps 757 mmHg 38%
    11:00 +37°C° 0 mm 5 mps 757 mmHg 34%
    12:00 +39°C° 0 mm 6 mps 757 mmHg 30%
    13:00 +40°C° 0 mm 6 mps 756 mmHg 26%
    14:00 +39°C° 0 mm 7 mps 756 mmHg 28%
    15:00 +39°C° 0 mm 7 mps 756 mmHg 29%
    16:00 +38°C° 0 mm 7 mps 756 mmHg 30%
    17:00 +35°C° 0 mm 7 mps 756 mmHg 39%
    18:00 +32°C° 0 mm 7 mps 756 mmHg 49%
    19:00 +29°C° 0 mm 7 mps 756 mmHg 58%
    20:00 +28°C° 0 mm 7 mps 757 mmHg 58%
    21:00 +27°C° 0 mm 8 mps 757 mmHg 59%
    22:00 +26°C° 0 mm 8 mps 757 mmHg 59%
    23:00 +26°C° 0 mm 7 mps 757 mmHg 58%

    29 June, Saturday

    Time Temperature Precipitation Wind Pressure Humidity
    00:00 +24°C° 0 mm 7 mps 757 mmHg 56%
    01:00 +23°C° 0 mm 6 mps 757 mmHg 55%
    02:00 +22°C° 0 mm 6 mps 757 mmHg 56%
    03:00 +22°C° 0 mm 6 mps 757 mmHg 57%
    04:00 +21°C° 0 mm 7 mps 757 mmHg 58%
    05:00 +23°C° 0 mm 6 mps 757 mmHg 55%
    06:00 +24°C° 0 mm 6 mps 757 mmHg 51%
    07:00 +27°C° 0 mm 6 mps 757 mmHg 47%
    08:00 +29°C° 0 mm 6 mps 757 mmHg 41%
    09:00 +30°C° 0 mm 6 mps 758 mmHg 34%
    10:00 +33°C° 0 mm 5 mps 758 mmHg 28%
    11:00 +34°C° 0 mm 6 mps 758 mmHg 27%
    12:00 +35°C° 0 mm 6 mps 758 mmHg 26%
    13:00 +36°C° 0 mm 7 mps 758 mmHg 25%
    14:00 +37°C° 0 mm 8 mps 757 mmHg 26%
    15:00 +37°C° 0 mm 8 mps 757 mmHg 27%
    16:00 +37°C° 0 mm 9 mps 757 mmHg 29%
    17:00 +33°C° 0 mm 9 mps 757 mmHg 38%
    18:00 +31°C° 0 mm 10 mps 758 mmHg 47%
    19:00 +28°C° 0 mm 10 mps 758 mmHg 57%
    20:00 +27°C° 0 mm 9 mps 758 mmHg 57%
    21:00 +26°C° 0 mm 7 mps 759 mmHg 57%
    22:00 +24°C° 0 mm 6 mps 759 mmHg 58%
    23:00 +23°C° 0 mm 6 mps 759 mmHg 58%

    30 June, Sunday

    Time Temperature Precipitation Wind Pressure Humidity
    00:00 +23°C° 0 mm 6 mps 759 mmHg 58%
    01:00 +22°C° 0 mm 6 mps 759 mmHg 59%
    02:00 +22°C° 0 mm 6 mps 759 mmHg 59%
    03:00 +21°C° 0 mm 6 mps 759 mmHg 60%
    04:00 +21°C° 0 mm 6 mps 759 mmHg 60%
    05:00 +22°C° 0 mm 6 mps 759 mmHg 56%
    06:00 +25°C° 0 mm 5 mps 760 mmHg 53%
    07:00 +27°C° 0 mm 5 mps 760 mmHg 49%
    08:00 +29°C° 0 mm 5 mps 760 mmHg 43%
    09:00 +32°C° 0 mm 5 mps 760 mmHg 38%
    10:00 +34°C° 0 mm 4 mps 761 mmHg 33%
    11:00 +34°C° 0 mm 5 mps 761 mmHg 31%
    12:00 +35°C° 0 mm 6 mps 760 mmHg 29%
    13:00 +36°C° 0 mm 7 mps 760 mmHg 27%
    14:00 +36°C° 0 mm 7 mps 760 mmHg 29%
    15:00 +35°C° 0 mm 8 mps 760 mmHg 30%
    16:00 +35°C° 0 mm 9 mps 760 mmHg 32%
    17:00 +33°C° 0 mm 8 mps 760 mmHg 40%
    18:00 +31°C° 0 mm 8 mps 760 mmHg 47%
    19:00 +28°C° 0 mm 7 mps 760 mmHg 55%
    20:00 +27°C° 0 mm 6 mps 761 mmHg 54%
    21:00 +26°C° 0 mm 6 mps 761 mmHg 53%
    22:00 +25°C° 0 mm 5 mps 761 mmHg 52%
    23:00 +23°C° 0 mm 4 mps 761 mmHg 52%
    Show more